This is the latest recevied weather packets stored in our database for station/object DG4DAA-13. If no packets are shown the sender has not sent any weather packets the latest 10 day(s).
| Time | Temp. | Humidity | Pressure | Rain* | Wind** | Luminosity | Snow |
|---|---|---|---|---|---|---|---|
| 1777856904 | 11.11° C | 86% | 1014.4 hPa | 0 mm | - | - | - |
| 1777855109 | 11.11° C | 85% | 1014.4 hPa | 0 mm | - | - | - |
| 1777855104 | 11.11° C | 85% | 1014.4 hPa | 0 mm | - | - | - |
| 1777853304 | 11.67° C | 84% | 1014.3 hPa | 0 mm | - | - | - |
| 1777851504 | 12.22° C | 85% | 1014.1 hPa | 0 mm | - | - | - |
| 1777849704 | 12.22° C | 84% | 1014.3 hPa | 0 mm | - | - | - |
| 1777847904 | 12.78° C | 81% | 1014.2 hPa | 0 mm | - | - | - |
| 1777846104 | 13.33° C | 80% | 1014.1 hPa | 0 mm | - | - | - |
| 1777844305 | 13.89° C | 80% | 1014.3 hPa | 0 mm | - | - | - |
| 1777842505 | 15° C | 79% | 1014.3 hPa | 0 mm | - | - | - |
| 1777840705 | 15° C | 79% | 1014.3 hPa | 0 mm | - | - | - |
| 1777838905 | 15.56° C | 78% | 1014.2 hPa | 0 mm | - | - | - |
| 1777837105 | 16.11° C | 75% | 1014.1 hPa | 0 mm | - | - | - |
| 1777835305 | 16.67° C | 74% | 1014.1 hPa | 0 mm | - | - | - |
| 1777833505 | 16.67° C | 73% | 1013.7 hPa | 0 mm | - | - | - |
| 1777831705 | 17.78° C | 71% | 1013.7 hPa | 0 mm | - | - | - |
| 1777829905 | 17.78° C | 70% | 1013.5 hPa | 0 mm | - | - | - |
| 1777828105 | 18.89° C | 68% | 1013.3 hPa | 0 mm | - | - | - |
| 1777826305 | 19.44° C | 64% | 1013.2 hPa | 0 mm | - | - | - |
| 1777824507 | 20° C | 63% | 1013 hPa | 0 mm | - | - | - |
| 1777822705 | 19.44° C | 63% | 1012.8 hPa | 0 mm | - | - | - |
| 1777820905 | 20° C | 62% | 1012.8 hPa | 0 mm | - | - | - |
| 1777819105 | 21.11° C | 56% | 1012.7 hPa | 0 mm | - | - | - |
| 1777817305 | 21.67° C | 56% | 1012.8 hPa | 0 mm | - | - | - |
| 1777815506 | 21.67° C | 54% | 1012.8 hPa | 0 mm | - | - | - |
* Rain latest hour (hover to see other rain measurements)
** Current wind speed in m/s (hover to see current wind gust speed)